Location: Ellgau
(48.6000°N, 10.8689°E)
Time: 07:22:20
(UTC+00:00)

Daily predictions for brighter satellites

Satellite Brightness Start Highest point End
(mag) Time Altitude Azimuth Time Altitude Azimuth Time Altitude Azimuth
SL-08 RB Rocket 4.4 19:09:24 10° S 19:13:58 59° W 19:18:34 10° NNW
Cosmos 1697 Rocket 3.2 19:09:55 10° NNW 19:15:21 46° NE 19:20:44 10° SE
MetOp-A 4.2 19:10:21 10° SSE 19:15:43 87° WSW 19:21:07 10° NNW
Cosmos 1833 Rocket 3.4 19:12:08 10° SSE 19:16:59 31° ESE 19:21:51 10° NE
Cosmos 2228 Rocket 3.1 19:12:36 10° N 19:17:04 80° E 19:21:28 10° SSE
Cosmos 1515 Rocket 4.5 19:15:20 10° NNW 19:19:41 53° W 19:24:01 10° S
Cosmos 389 Rocket 2.7 19:16:44 10° N 19:20:05 49° ENE 19:23:26 10° SSE
SPOT 3 Rocket 3.6 19:16:42 10° SSE 19:21:54 77° ENE 19:27:07 10° NNW
Cosmos 1812 3.1 19:18:15 10° N 19:21:59 46° ENE 19:25:41 10° SSE
Cosmos 1727 Rocket 4.1 19:15:42 10° N 19:22:06 86° E 19:28:28 10° S
Cosmos 2251 Rocket 3.6 19:18:35 10° SSW 19:23:51 89° ESE 19:29:11 10° NNE
Cosmos 1656 3.7 19:21:32 10° NNW 19:27:02 90° NE 19:32:35 10° SSE
Cosmos 1707 Rocket 4.1 19:27:16 10° N 19:31:25 41° ENE 19:35:31 10° SE
Cosmos 1633 4.1 19:28:08 10° SSW 19:31:29 39° WNW 19:34:50 10° N
Cosmos 220 Rocket 4.0 19:27:24 10° NNW 19:31:37 69° ENE 19:35:49 10° SSE
IRIDIUM 104 4.4 19:26:56 10° S 19:32:06 65° E 19:37:16 10° N
Resurs 01 Rocket 1.7 19:28:38 10° SSE 19:33:01 68° ENE 19:37:26 10° N
Cosmos 972 Rocket 4.2 19:28:26 10° NNW 19:33:27 68° WSW 19:38:17 10° S
Cosmos 1441 Rocket 3.3 19:34:56 10° S 19:38:38 54° E 19:42:20 10° NNE
IRIDIUM 114 4.3 19:36:02 10° S 19:41:14 78° E 19:46:28 10° N
Cosmos 614 Rocket 4.0 19:37:18 10° S 19:42:20 58° ESE 19:47:28 10° NNE
IGS 5A 4.1 19:41:07 12° SE 19:44:42 40° ENE 19:48:35 10° N
Cosmos 1900 4.4 19:40:46 10° SW 19:45:43 88° NW 19:50:47 10° NE
USA 267 3.3 19:41:09 10° ENE 19:47:38 60° SE 19:54:04 10° SW
GP-B 3.9 19:45:53 10° NNE 19:49:56 33° E 19:53:13 14° SE
IRIDIUM 103 4.4 19:45:09 10° S 19:50:22 89° W 19:55:38 10° N
Cosmos 1821 Rocket 3.9 19:46:29 10° S 19:52:35 75° E 19:58:49 10° NNE
COSMOS 2406 3.2 19:48:59 10° SSW 19:54:45 82° ESE 20:00:31 10° NNE
Shenzhou-11 Module 3.1 19:53:14 10° SW 19:54:59 18° S 19:55:30 17° S
Cosmos 921 Rocket 4.3 19:51:51 10° N 19:55:24 25° ENE 19:58:03 14° ESE
CZ-2C R/B 3.9 19:51:13 10° NNE 19:55:52 77° WNW 20:00:24 10° SSW
SL-16 R/B 3.8 19:53:21 10° N 19:57:47 23° NE 20:02:11 10° E
Intercosmos 25 3.5 19:53:13 10° NNW 19:57:57 77° W 20:01:19 10° S
Cosmos 1862 Rocket 4.2 19:53:43 10° N 19:57:58 39° ENE 20:01:01 17° SE
ERS-1 Rocket 3.8 19:56:08 15° SE 19:59:47 36° ENE 20:04:22 10° N
Lacrosse 5 3.0 19:56:18 10° NW 20:01:03 38° NNE 20:05:49 10° E
Cosmos 2369 3.7 19:57:29 10° NNW 20:03:16 88° ENE 20:08:04 15° SSE
Cosmos 1862 4.0 19:59:57 10° SSW 20:03:57 58° WNW 20:07:59 10° N
Sich 1 3.1 20:00:24 10° S 20:04:50 89° ESE 20:09:18 10° N
Cosmos 1818 3.8 20:02:35 10° NW 20:08:00 65° WSW 20:12:24 16° SSE
BREEZE-M DEB (TANK) 1.7 20:05:47 10° W 20:08:43 75° N 20:09:54 20° E
Cosmos 2082 Rocket 2.4 20:04:28 10° S 20:09:54 47° ESE 20:15:20 10° NE
Cosmos 2278 3.8 20:06:49 10° NNW 20:12:33 73° ENE 20:16:44 19° SE
Cosmos 2123 Rocket 4.0 20:06:26 10° N 20:12:40 74° E 20:18:06 14° SSE
Meteor 2-20 4.4 20:08:15 10° N 20:14:28 86° E 20:20:07 13° S
Spot 2 Rocket 3.5 20:11:25 15° SSE 20:15:42 83° ENE 20:20:50 10° NNW
Cosmos 1535 Rocket 4.5 20:09:39 10° S 20:15:43 66° E 20:21:47 10° NNE
Cosmos 2322 Rocket 3.7 20:15:38 10° NNW 20:20:22 26° NE 20:24:25 13° E
Meteor 1-4 Rocket 2.3 20:16:53 10° N 20:20:24 88° ENE 20:22:27 23° SSE
Cosmos 1184 Rocket 3.1 20:21:02 27° SSE 20:22:24 45° E 20:25:35 10° NNE
CARTOSAT-1 3.9 20:20:05 23° SE 20:22:32 50° ENE 20:26:44 10° N
Cosmos 1190 Rocket 3.9 20:17:24 10° SSW 20:22:40 76° ESE 20:27:59 10° NNE
CZ-2C R/B 4.4 20:18:46 10° N 20:23:22 33° WNW 20:27:57 10° SW
Terra 2.7 20:21:08 21° ESE 20:23:43 36° ENE 20:28:04 10° N
USA 234 3.3 20:18:45 18° SE 20:23:50 85° SW 20:30:25 10° NW
Cosmos 407 Rocket 3.6 20:20:17 10° SSW 20:25:38 85° WNW 20:30:57 10° NNE
Cosmos 1933 Rocket 4.3 20:24:16 24° SE 20:26:03 34° E 20:30:03 10° NNE
Cosmos 1605 Rocket 4.1 20:21:08 15° SSE 20:26:03 54° E 20:31:58 10° NNE
Cosmos 1666 Rocket 3.6 20:22:07 10° SSW 20:26:26 82° WNW 20:30:47 10° N
Cosmos 1238 Rocket 2.9 20:28:02 32° ESE 20:28:19 33° E 20:31:02 10° NNE
Okean 1 4.1 20:26:10 10° N 20:29:57 37° ENE 20:31:27 27° ESE
Meteor 1-27 Rocket 4.4 20:25:16 10° NNW 20:31:03 59° W 20:36:52 10° S
Cosmos 2360 Rocket 4.0 20:30:10 10° N 20:34:21 21° NE 20:38:33 10° E
Cosmos 1437 Rocket 3.9 20:31:05 10° N 20:34:25 28° ENE 20:35:27 24° E
CZ-4B DEB 4.3 20:35:36 36° SSE 20:36:50 75° ENE 20:40:11 10° N
SPOT 5 2.7 20:35:54 28° SE 20:38:01 62° ENE 20:42:19 10° N
USA 238 DEB 3.9 20:32:21 10° S 20:38:36 46° ESE 20:45:07 10° NE
USA 238 3.9 20:32:29 10° S 20:38:43 46° ESE 20:45:12 10° NE
Meteor 1-19 Rocket 4.5 20:34:14 10° N 20:39:30 49° ENE 20:42:13 27° SE
SPOT 1/Viking Rocket 3.7 20:39:53 19° S 20:43:37 71° WSW 20:48:51 10° NNW
Cosmos 1980 Rocket 2.3 20:38:01 10° NNW 20:43:43 76° WSW 20:47:05 25° SSE
Cosmos 1703 Rocket 4.1 20:41:29 10° N 20:45:40 43° ENE 20:47:06 32° ESE
Cosmos 2242 Rocket 3.7 20:41:18 10° N 20:45:43 59° ENE 20:47:29 33° SE
Cosmos 1763 Rocket 4.0 20:43:27 10° NNW 20:48:38 49° ENE 20:51:08 28° ESE
SL-4 R/B 1.6 20:44:53 10° SW 20:48:45 67° SSE 20:51:35 16° ENE
Genesis I 3.3 20:45:36 10° NW 20:49:27 68° SW 20:50:44 39° SSE
BREEZE-M DEB (TANK) 2.8 20:46:38 10° W 20:49:37 82° N 20:58:20 10° E
Cosmos 405 Rocket 2.8 20:49:22 42° SE 20:50:10 52° E 20:53:48 10° NNE
Cosmos 1140 Rocket 3.8 20:46:06 10° SSW 20:51:19 68° WNW 20:56:35 10° NNE
ATLAS 5 CENTAUR R/B 4.1 20:47:39 10° WNW 20:52:14 24° WSW 20:57:17 10° SSW
USA 32 4.1 20:53:02 17° S 20:57:08 77° W 21:02:24 10° N
Cosmos 1697 Rocket 4.0 20:54:11 10° NW 20:59:09 33° WSW 21:03:04 15° SSW
Cosmos 1633 Rocket 4.1 20:55:33 10° SSW 20:59:49 46° WNW 21:04:06 10° N
Cosmos 1833 Rocket 3.6 20:55:15 10° SW 21:00:41 49° NW 21:06:11 10° NNE
Cosmos 1153 Rocket 4.4 21:03:26 27° S 21:06:54 70° E 21:13:03 10° NNE
Cosmos 1867 3.5 21:01:37 10° SW 21:07:04 89° SE 21:12:34 10° NE
CENTAUR R/B 2.8 21:04:45 30° SSE 21:07:08 42° ESE 21:13:36 10° NE
Meteor 1-18 Rocket 4.1 21:01:33 10° NNW 21:07:12 89° E 21:09:50 33° S
Okean 1-7 3.1 21:03:04 10° N 21:07:23 64° ENE 21:08:30 46° SE
Resurs 01 Rocket 4.2 21:07:28 10° SW 21:09:58 15° W 21:12:30 10° NW
Okean 3 4.5 21:09:28 10° N 21:13:21 32° ENE 21:13:59 31° E
FALCON 9 DEB 3.0 21:10:56 10° WSW 21:14:26 84° SSE 21:15:22 46° ENE
Cosmos 1850 Rocket 4.1 21:14:19 39° SSE 21:15:58 54° ESE 21:21:06 10° NNE
Meteor 2-4 Rocket 3.8 21:11:12 10° N 21:16:53 62° ENE 21:18:53 38° SE
Cosmos 1515 3.6 21:13:57 10° N 21:17:48 87° E 21:18:22 63° SSE
SL-27 R/B 4.2 21:19:37 21° ENE 21:19:37 21° ENE 21:21:06 10° NE
Cosmos 676 Rocket 4.5 21:14:58 10° SW 21:20:14 62° WNW 21:25:34 10° NNE
Cosmos 44 4.0 21:16:27 10° NNW 21:21:08 47° NE 21:23:08 31° E
ATLAS 5 CENTAUR R/B 2.6 21:18:53 10° NNW 21:21:26 44° NE 21:23:25 28° E
Cosmos 1470 Rocket 4.4 21:19:31 18° SW 21:22:31 47° WNW 21:26:47 10° N
SWARM C 4.4 21:19:28 10° N 21:22:47 88° NNE 21:22:47 88° NNE
SWARM A 4.1 21:19:34 10° N 21:22:55 82° W 21:22:57 82° WSW
USA 267 3.8 21:24:14 10° NE 21:30:41 61° NNW 21:37:06 10° W
NOSS 3-2 (A) 3.4 21:27:23 10° SW 21:33:08 87° NW 21:39:49 10° NE
Cosmos 921 Rocket 4.0 21:29:53 10° NW 21:33:47 36° WSW 21:34:50 31° SW
ERS-1 Rocket 4.2 21:36:09 22° SW 21:38:35 34° W 21:43:10 10° NNW
NOSS 3-2 (C) 3.3 21:35:51 28° SSW 21:39:01 70° SE 21:45:34 10° NE
Cosmos 841 Rocket 3.5 21:35:27 10° NNW 21:40:41 70° ENE 21:42:00 49° SE
Cosmos 540 Rocket 3.5 21:36:57 10° NNW 21:42:08 69° ENE 21:43:22 50° SE
SL-16 R/B 2.1 21:36:54 10° NNW 21:42:38 85° WSW 21:44:17 48° SSE
Cosmos 468 Rocket 4.4 21:39:02 10° NNW 21:44:14 55° WSW 21:45:45 41° SSW
Lacrosse 5 1.7 21:39:21 10° NW 21:44:27 83° SW 21:45:31 56° SE
Cosmos 1741 Rocket 4.0 21:48:23 40° SSW 21:50:22 85° WNW 21:55:41 10° NNE
Cosmos 1570 Rocket 3.9 21:46:37 10° NNW 21:51:59 87° ENE 21:53:10 56° SSE
Tsikada Rocket 4.3 21:46:46 10° N 21:53:01 54° ENE 21:54:55 40° SE
Cosmos 2219 Rocket 3.8 21:48:45 10° NNW 21:53:35 27° NE 21:56:38 18° E
Cosmos 2208 Rocket 4.0 21:48:47 10° NNW 21:54:06 77° ENE 21:55:11 56° SE
Cosmos 2082 Rocket 3.7 21:48:59 10° WSW 21:54:09 35° NW 21:59:22 10° NNE
Cosmos 1814 Rocket 4.0 21:49:15 10° NNW 21:54:28 74° ENE 21:55:32 55° SE
Cosmos 2084 Rocket 4.3 21:59:01 38° ENE 21:59:01 38° ENE 22:01:56 10° NE
Cosmos 2237 4.3 21:53:19 10° NNW 21:59:02 69° ENE 22:00:34 48° ESE
Terra 3.1 22:00:01 26° SW 22:01:29 31° W 22:05:44 10° NNW
Cosmos 2322 Rocket 2.2 21:59:17 10° NNW 22:04:58 71° WSW 22:06:13 53° S
EO 1 Del DPAF 4.3 22:02:19 10° NNE 22:04:57 35° ENE 22:04:57 35° ENE
USA 234 4.2 22:06:06 27° SSW 22:07:26 29° SW 22:13:00 10° WNW
Cosmos 2100 Rocket 4.1 22:05:35 35° SSW 22:08:15 68° WNW 22:14:24 10° N
Meteor 1-11 Rocket 3.7 22:09:09 57° SSE 22:10:14 72° E 22:15:58 10° NNE
Cosmos 1437 Rocket 4.4 22:07:27 10° NW 22:10:35 24° W 22:10:50 24° W
Cosmos 1242 Rocket 3.5 22:09:18 10° N 22:12:07 42° NE 22:12:07 42° NE
Cosmos 1869 Rocket 4.3 22:13:01 42° WSW 22:13:54 49° WNW 22:18:15 10° N
Cosmos 2360 Rocket 2.1 22:13:31 10° NNW 22:19:14 85° ENE 22:20:19 60° SE
COSMOS 2428 3.9 22:14:53 10° NNW 22:20:10 36° NE 22:22:36 25° E
Geosat 4.2 22:20:48 51° SW 22:21:17 54° WSW 22:26:15 10° NW
ATLAS 3B R/B 2.7 22:21:13 51° SSE 22:22:05 54° ESE 22:28:32 10° NE
Iridium 4 Rocket 3.9 22:21:45 39° WSW 22:22:22 42° W 22:26:25 10° N
Cosmos 2173 Rocket 4.4 22:21:11 32° SW 22:23:52 56° WNW 22:29:55 10° N
Cosmos 1500 4.5 22:25:10 33° W 22:25:21 33° WNW 22:28:46 10° N
CRYOSAT 2 4.3 22:21:17 10° N 22:26:10 74° W 22:26:46 65° SW
Cosmos 1980 Rocket 4.4 22:24:24 10° WNW 22:26:43 13° W 22:28:51 10° WSW
ALOS 2 2.6 22:27:44 69° ENE 22:27:44 69° ENE 22:32:05 10° N
SL-4 R/B 3.0 22:24:47 10° W 22:27:13 35° WNW 22:27:13 35° WNW
Cosmos 1725 Rocket 3.9 22:27:20 51° SSW 22:29:04 87° W 22:35:27 10° N
USA 238 DEB 4.4 22:23:02 10° WSW 22:29:32 51° NW 22:36:21 10° NE
USA 238 4.4 22:23:08 10° WSW 22:29:38 52° NW 22:36:28 10° NE
Nimbus 7 Rocket 4.4 22:25:35 10° NNE 22:31:24 62° ESE 22:32:15 56° SE
Cosmos 1674 Rocket 3.6 22:29:08 10° N 22:33:13 75° NE 22:33:13 75° NE
SL-08 R/B 4.4 22:32:19 51° SSW 22:33:56 79° W 22:40:04 10° N
Cosmos 1536 3.1 22:34:39 64° NNW 22:34:39 64° NNW 22:38:10 10° N
Cosmos 1666 3.5 22:37:32 48° NW 22:37:32 48° NW 22:40:40 10° N
Cosmos 1743 3.9 22:38:17 36° NE 22:38:17 36° NE 22:41:00 10° NNE
Cosmos 2333 Rocket 2.6 22:34:04 10° NNW 22:39:46 56° NE 22:41:19 43° ESE
Cosmos 1271 Rocket 3.6 22:37:50 10° N 22:40:47 44° NNE 22:40:47 44° NNE
Cosmos 2016 Rocket 4.3 22:39:51 39° SW 22:42:05 60° WNW 22:48:24 10° N
Cosmos 2061 Rocket 4.3 22:41:23 40° SW 22:43:29 59° WNW 22:49:37 10° N
Cosmos 2237 Rocket 4.0 22:39:04 10° N 22:43:42 25° NE 22:47:33 13° E
Lacrosse 4 Rocket 2.7 22:45:23 31° ENE 22:45:23 31° ENE 22:47:54 10° NE
MOS 1-B Rocket 4.4 22:39:06 10° N 22:44:40 53° WNW 22:46:44 35° WSW
Cosmos 1733 Rocket 3.3 22:50:59 60° WNW 22:50:59 60° WNW 22:55:17 10° N
Meteor 2-11 Rocket 4.4 22:51:23 58° SE 22:52:20 67° E 22:58:24 10° NNE
Cosmos 1066 Rocket 4.3 22:47:20 10° NNW 22:53:00 63° W 22:53:46 57° SW
Meteor 1-23 Rocket 4.4 22:49:02 10° NNW 22:54:49 64° W 22:55:42 57° SW
Thor Agena Rocket 4.0 22:50:59 10° N 22:55:55 54° WNW 22:56:59 45° WSW
Cosmos 44 Rocket 4.2 22:51:16 10° NNW 22:56:04 46° NE 22:57:31 36° E
Cosmos 836 Rocket 4.4 22:52:24 10° NNW 22:57:39 79° ENE 22:58:03 73° ESE
CENTAUR R/B 3.3 22:51:50 11° WSW 22:57:40 53° NW 23:04:53 10° NE
Cosmos 968 Rocket 3.6 22:59:01 57° E 22:59:01 57° E 23:03:50 10° NNE
Cosmos 1975 4.0 23:02:22 35° ENE 23:02:22 35° ENE 23:05:16 10° NNE
Cosmos 44 4.5 22:57:51 10° NW 23:01:33 32° W 23:01:33 32° W
SL-24 DEB 4.3 23:00:35 10° N 23:05:18 75° E 23:05:18 75° E
Cosmos 1782 Rocket 4.3 23:10:37 44° ENE 23:10:37 44° ENE 23:14:13 10° NNE
USA 267 4.4 23:07:02 10° ENE 23:13:08 43° N 23:19:13 10° WNW
Cosmos 1378 4.4 23:09:55 10° NNW 23:12:29 36° NW 23:12:29 36° NW
Cosmos 2233 Rocket 4.2 23:14:31 47° SW 23:16:08 62° WNW 23:22:26 10° N
Cosmos 1707 4.4 23:13:04 10° NNE 23:16:13 26° ENE 23:16:13 26° ENE
Cosmos 1464 Rocket 4.2 23:15:36 51° SE 23:16:43 58° E 23:22:47 10° NNE
Cosmos 1908 Rocket 3.7 23:18:33 71° NNW 23:18:33 71° NNW 23:22:32 10° N
Cosmos 1842 4.0 23:14:33 10° N 23:17:41 52° NNE 23:17:41 52° NNE
Helios 1B rocket 4.0 23:19:01 10° NE 23:21:48 26° ENE 23:21:48 26° ENE
Cosmos 2227 Rocket 4.1 23:22:42 16° ESE 23:23:01 16° E 23:26:23 10° ENE
Meteor 1-21 4.3 23:18:34 10° N 23:24:25 74° ENE 23:25:21 61° SE
SL-16 R/B 4.2 23:22:54 10° WNW 23:25:50 14° W 23:26:08 14° W
Lacrosse 5 4.0 23:23:15 10° W 23:24:41 15° W 23:24:41 15° W
Cosmos 2322 3.9 23:23:54 10° NW 23:29:25 53° WSW 23:29:31 53° WSW
COSMOS 2487 4.2 23:32:14 29° NNW 23:32:14 29° NNW 23:34:36 10° N
Nadezhda 4 Rocket 4.2 23:30:11 10° N 23:36:29 66° ENE 23:38:03 49° SE
Cosmos 2219 Rocket 2.1 23:32:23 10° NNW 23:38:01 66° WSW 23:38:19 64° SW
Cosmos 783 Rocket 4.3 23:36:42 10° NNW 23:41:58 87° ENE 23:42:23 77° SSE
Cosmos 1975 Rocket 3.2 23:38:19 10° NNW 23:42:25 69° NW 23:42:25 69° NW
Cosmos 1513 Rocket 4.5 23:42:38 59° S 23:43:59 89° W 23:50:27 10° N
Okean 2 Rocket 3.8 23:45:22 45° E 23:45:22 45° E 23:49:28 10° NNE
Cosmos 2034 Rocket 4.1 23:43:53 54° SSE 23:45:10 68° E 23:51:27 10° NNE
Cosmos 1503 Rocket 3.9 23:45:55 75° SW 23:46:24 87° WNW 23:51:50 10° NNE
Cosmos 2322 Rocket 4.4 23:46:07 10° WNW 23:47:58 12° W 23:48:01 12° W
Cosmos 1072 Rocket 4.4 23:46:51 60° SSW 23:48:00 80° W 23:54:09 10° N
Helios 1A 4.0 23:49:48 37° WNW 23:49:48 37° WNW 23:53:01 10° NNW
Landsat 4 4.4 23:46:13 10° NNE 23:49:12 53° NNE 23:49:12 53° NNE
SL-16 R/B 3.8 23:46:15 18° ESE 23:50:15 36° ENE 23:55:53 10° N
Cosmos 1092 Rocket 4.4 23:44:32 10° N 23:50:40 54° ENE 23:52:45 38° SE
Cosmos 1300 Rocket 4.1 23:52:28 47° ENE 23:52:28 47° ENE 23:56:19 10° NNE
ERBS 4.3 23:49:09 10° NW 23:51:02 26° NNW 23:51:02 26° NNW
CZ-2D R/B 3.8 23:49:15 10° NE 23:53:27 22° E 23:54:54 20° ESE
SL-16 R/B 3.8 23:48:57 10° NNW 23:53:59 31° NE 23:58:59 10° ESE
Sich 1 Rocket 3.6 23:55:31 77° NNE 23:55:31 77° NNE 23:59:37 10° N
